• In Germany
  • List of Countries
  • For 7 days
  • Water Temperature
  • Satellite Maps
  • Weather Map
  • Weather Widgets
  • user-avatar
    Login

    Hourly Weather Pazardzhik

    Today, 25 November, Saturday

    Time Temperature Precipitation Wind Pressure Humidity
    00:00 +9°C° 0 mm 1 mps 747 mmHg 77%
    01:00 +8°C° 0 mm 1 mps 747 mmHg 78%
    02:00 +8°C° 0 mm 1 mps 747 mmHg 79%
    03:00 +8°C° 0 mm 1 mps 747 mmHg 79%
    04:00 +8°C° 0 mm 1 mps 747 mmHg 80%
    05:00 +8°C° 0 mm 1 mps 747 mmHg 80%
    06:00 +8°C° 0 mm 1 mps 747 mmHg 80%
    07:00 +8°C° 0 mm 1 mps 747 mmHg 79%
    08:00 +8°C° 0 mm 1 mps 746 mmHg 79%
    09:00 +10°C° 0 mm 1 mps 746 mmHg 73%
    10:00 +12°C° 0 mm 1 mps 746 mmHg 66%
    11:00 +14°C° 0 mm 1 mps 746 mmHg 60%
    12:00 +14°C° 0 mm 1 mps 746 mmHg 60%
    13:00 +14°C° 0 mm 1 mps 746 mmHg 59%
    14:00 +15°C° 0 mm 2 mps 745 mmHg 58%
    15:00 +13°C° 0 mm 1 mps 745 mmHg 67%
    16:00 +12°C° 0 mm 1 mps 745 mmHg 76%
    17:00 +10°C° 0 mm 1 mps 744 mmHg 85%
    18:00 +10°C° 0 mm 1 mps 744 mmHg 87%
    19:00 +9°C° 0 mm 1 mps 744 mmHg 89%
    20:00 +9°C° 0 mm 1 mps 745 mmHg 91%
    21:00 +9°C° 0 mm 1 mps 744 mmHg 91%
    22:00 +9°C° 0 mm 1 mps 744 mmHg 91%
    23:00 +9°C° 0 mm 1 mps 744 mmHg 91%

    Tomorrow, 26 November, Sunday

    Time Temperature Precipitation Wind Pressure Humidity
    00:00 +9°C° 0 mm 1 mps 744 mmHg 91%
    01:00 +9°C° 0 mm 1 mps 744 mmHg 91%
    02:00 +8°C° 0 mm 1 mps 744 mmHg 91%
    03:00 +8°C° 0 mm 1 mps 744 mmHg 91%
    04:00 +8°C° 0 mm 1 mps 744 mmHg 91%
    05:00 +8°C° 0 mm 1 mps 743 mmHg 91%
    06:00 +8°C° 0 mm 1 mps 743 mmHg 90%
    07:00 +8°C° 0 mm 1 mps 743 mmHg 90%
    08:00 +8°C° 0 mm 1 mps 744 mmHg 89%
    09:00 +10°C° 0 mm 1 mps 743 mmHg 80%
    10:00 +12°C° 0 mm 1 mps 743 mmHg 72%
    11:00 +14°C° 0 mm 1 mps 743 mmHg 63%
    12:00 +14°C° 0 mm 1 mps 743 mmHg 61%
    13:00 +15°C° 0 mm 1 mps 742 mmHg 59%
    14:00 +16°C° 0 mm 1 mps 742 mmHg 57%
    15:00 +14°C° 0 mm 1 mps 742 mmHg 64%
    16:00 +13°C° 0 mm 1 mps 741 mmHg 71%
    17:00 +12°C° 0 mm 1 mps 741 mmHg 78%
    18:00 +11°C° 0 mm 1 mps 741 mmHg 79%
    19:00 +11°C° 0 mm 1 mps 741 mmHg 80%
    20:00 +11°C° 0 mm 1 mps 741 mmHg 81%
    21:00 +11°C° 0.1 mm 1 mps 741 mmHg 82%
    22:00 +11°C° 0.1 mm 1 mps 741 mmHg 82%
    23:00 +11°C° 0.1 mm 1 mps 741 mmHg 83%

    Day after tomorrow, 27 November, Monday

    Time Temperature Precipitation Wind Pressure Humidity
    00:00 +11°C° 0.1 mm 1 mps 741 mmHg 84%
    01:00 +10°C° 0.1 mm 1 mps 741 mmHg 84%
    02:00 +10°C° 0.1 mm 1 mps 741 mmHg 85%
    03:00 +10°C° 0.1 mm 1 mps 741 mmHg 86%
    04:00 +10°C° 0.1 mm 1 mps 741 mmHg 86%
    05:00 +10°C° 0.1 mm 1 mps 741 mmHg 87%
    06:00 +10°C° 0.1 mm 1 mps 741 mmHg 87%
    07:00 +10°C° 0.1 mm 1 mps 741 mmHg 87%
    08:00 +10°C° 0.1 mm 1 mps 741 mmHg 88%
    09:00 +11°C° 0.2 mm 1 mps 741 mmHg 85%
    10:00 +11°C° 0.2 mm 1 mps 741 mmHg 82%
    11:00 +12°C° 0.2 mm 1 mps 741 mmHg 79%
    12:00 +12°C° 1.2 mm 2 mps 741 mmHg 82%
    13:00 +12°C° 1.2 mm 2 mps 740 mmHg 84%
    14:00 +10°C° 1.2 mm 2 mps 740 mmHg 86%
    15:00 +10°C° 1.9 mm 2 mps 739 mmHg 88%
    16:00 +9°C° 1.9 mm 2 mps 739 mmHg 89%
    17:00 +9°C° 1.9 mm 2 mps 739 mmHg 90%
    18:00 +8°C° 2.9 mm 3 mps 739 mmHg 90%
    19:00 +8°C° 2.9 mm 3 mps 738 mmHg 90%
    20:00 +7°C° 2.9 mm 3 mps 738 mmHg 90%
    21:00 +7°C° 2 mm 3 mps 738 mmHg 89%
    22:00 +7°C° 2 mm 3 mps 738 mmHg 89%
    23:00 +5°C° 2 mm 3 mps 738 mmHg 89%

    28 November, Tuesday

    Time Temperature Precipitation Wind Pressure Humidity
    00:00 +5°C° 1.1 mm 3 mps 738 mmHg 89%
    01:00 +5°C° 1.1 mm 3 mps 738 mmHg 89%
    02:00 +6°C° 1.1 mm 2 mps 738 mmHg 89%
    03:00 +6°C° 1 mm 2 mps 738 mmHg 89%
    04:00 +5°C° 1 mm 2 mps 738 mmHg 89%
    05:00 +5°C° 1 mm 2 mps 738 mmHg 89%
    06:00 +5°C° 0.7 mm 2 mps 738 mmHg 89%
    07:00 +5°C° 0.7 mm 2 mps 738 mmHg 89%
    08:00 +5°C° 0.7 mm 2 mps 739 mmHg 89%
    09:00 +5°C° 0.6 mm 2 mps 739 mmHg 88%
    10:00 +5°C° 0.6 mm 2 mps 739 mmHg 88%
    11:00 +6°C° 0.6 mm 2 mps 740 mmHg 87%
    12:00 +6°C° 0.5 mm 2 mps 739 mmHg 87%
    13:00 +6°C° 0.5 mm 2 mps 739 mmHg 86%
    14:00 +6°C° 0.5 mm 2 mps 739 mmHg 86%
    15:00 +6°C° 0.3 mm 2 mps 739 mmHg 87%
    16:00 +5°C° 0.3 mm 2 mps 739 mmHg 88%
    17:00 +6°C° 0.3 mm 1 mps 740 mmHg 89%
    18:00 +6°C° 0.2 mm 1 mps 740 mmHg 89%
    19:00 +5°C° 0.2 mm 1 mps 740 mmHg 89%
    20:00 +5°C° 0.2 mm 1 mps 741 mmHg 89%
    21:00 +5°C° 0.1 mm 1 mps 741 mmHg 88%
    22:00 +5°C° 0.1 mm 1 mps 741 mmHg 88%
    23:00 +4°C° 0.1 mm 1 mps 741 mmHg 88%

    29 November, Wednesday

    Time Temperature Precipitation Wind Pressure Humidity
    00:00 +4°C° 0 mm 1 mps 741 mmHg 87%
    01:00 +4°C° 0 mm 1 mps 741 mmHg 87%
    02:00 +4°C° 0 mm 1 mps 741 mmHg 86%
    03:00 +3°C° 0 mm 1 mps 741 mmHg 86%
    04:00 +3°C° 0 mm 1 mps 741 mmHg 85%
    05:00 +3°C° 0 mm 1 mps 741 mmHg 85%
    06:00 +3°C° 0 mm 1 mps 741 mmHg 84%
    07:00 +3°C° 0 mm 1 mps 742 mmHg 83%
    08:00 +3°C° 0 mm 1 mps 742 mmHg 83%
    09:00 +5°C° 0 mm 1 mps 742 mmHg 81%
    10:00 +7°C° 0 mm 1 mps 742 mmHg 78%
    11:00 +8°C° 0 mm 0 mps 742 mmHg 76%
    12:00 +8°C° 0 mm 0 mps 742 mmHg 76%
    13:00 +10°C° 0 mm 1 mps 742 mmHg 75%
    14:00 +10°C° 0 mm 1 mps 742 mmHg 75%
    15:00 +9°C° 0 mm 1 mps 742 mmHg 78%
    16:00 +8°C° 0 mm 1 mps 742 mmHg 81%
    17:00 +7°C° 0 mm 1 mps 742 mmHg 83%
    18:00 +6°C° 0 mm 1 mps 743 mmHg 83%
    19:00 +6°C° 0 mm 1 mps 743 mmHg 82%
    20:00 +5°C° 0 mm 1 mps 743 mmHg 82%
    21:00 +5°C° 0 mm 1 mps 743 mmHg 81%
    22:00 +5°C° 0 mm 1 mps 743 mmHg 81%
    23:00 +5°C° 0 mm 1 mps 744 mmHg 80%

    30 November, Thursday

    Time Temperature Precipitation Wind Pressure Humidity
    00:00 +5°C° 0 mm 1 mps 744 mmHg 80%
    01:00 +4°C° 0 mm 2 mps 743 mmHg 79%
    02:00 +3°C° 0 mm 2 mps 743 mmHg 79%
    03:00 +3°C° 0 mm 2 mps 743 mmHg 79%
    04:00 +3°C° 0 mm 2 mps 743 mmHg 79%
    05:00 +3°C° 0 mm 2 mps 743 mmHg 79%
    06:00 +4°C° 0 mm 2 mps 743 mmHg 79%
    07:00 +4°C° 0 mm 2 mps 743 mmHg 79%
    08:00 +4°C° 0 mm 2 mps 743 mmHg 79%
    09:00 +6°C° 0 mm 2 mps 743 mmHg 78%
    10:00 +7°C° 0 mm 2 mps 742 mmHg 77%
    11:00 +9°C° 0 mm 2 mps 742 mmHg 75%
    12:00 +10°C° 0 mm 2 mps 742 mmHg 76%
    13:00 +10°C° 0 mm 2 mps 741 mmHg 76%
    14:00 +12°C° 0 mm 2 mps 740 mmHg 76%
    15:00 +10°C° 0 mm 2 mps 740 mmHg 79%
    16:00 +9°C° 0 mm 2 mps 740 mmHg 81%
    17:00 +8°C° 0 mm 2 mps 740 mmHg 84%
    18:00 +8°C° 0 mm 2 mps 740 mmHg 85%
    19:00 +8°C° 0 mm 2 mps 740 mmHg 86%
    20:00 +8°C° 0 mm 2 mps 740 mmHg 87%
    21:00 +8°C° 0 mm 2 mps 740 mmHg 87%
    22:00 +8°C° 0 mm 2 mps 740 mmHg 87%
    23:00 +8°C° 0 mm 2 mps 740 mmHg 88%
    Show more